Location: Black Swamp Observatory
(41.3920°N, 84.1250°W)
Time: 21:21:48
(UTC-04:00)

Vanguard 2 Rocket - Visible Passes

Search period start: 17 August 2022 00:00
Search period end: 27 August 2022 00:00
Orbit: 553 x 3324 km, 32.9° (Epoch: 16 August)

Date Brightness Start Highest point End Pass type
(mag) Time Alt. Az. Time Alt. Az. Time Alt. Az.
18 Aug 10.5 21:47:56 10° W 21:57:40 17° SW 22:05:57 10° SSW visible
19 Aug 10.4 20:42:31 10° W 20:56:55 26° SW 21:08:51 10° S visible
21 Aug 10.7 20:57:37 10° W 21:08:36 18° SW 21:18:22 10° SSW visible
23 Aug 11.0 21:17:13 10° WSW 21:20:18 11° SW 21:23:18 10° SW visible
